Погода в Сапожке

Россия / Саратовская область     52°19′48″N   43°59′04″E
темп.,
°C
ветер,
м/с
пор.,
м/с
влажн.,
%
обл.,
%
осадки,
мм/ч
давл.,
гПа
погр.,
м
10 мая, пн
пн1001:00+7сз61196100 3.8 1014464
04:00+6ссз61097100 5.9 1014434
07:00+6ссз51098100 3.7 1014407
10:00+9с6997100 5.6 1014303
13:00+13ссв81389100 0.2 1013581
16:00+16ссв91581100 1.4 1013619
19:00+17св101680100 1.4 1013494
22:00+13с1292100 5.6 101620
11 мая, вт
вт1101:00+14св61585100 0.3 1015439
04:00+13всв61480100 0.3 1016363
07:00+11ю5693100 0.2 1018348
10:00+10ююв5886100 1.7 1022703
13:00+14юв67555 0.0 10231323
16:00+16юв58506 0.0 10241816
19:00+15юв356212 0.0 1026302
22:00+10з227596 0.0 102610
12 мая, ср
ср1201:00+11ссв3575100 0.0 1026115
04:00+10св5986100 0.1 1025327
07:00+10св51197100 1.9 1022451
10:00+14в9148448 2.2 10211092
13:00+16вюв8117485 0.1 10211078
16:00+14ююз3588100 0.3 1022361
19:00+14св1190100 0.0 102273
22:00+15вюв41081100 0.1 1022337
13 мая, чт
чт1301:00+14в51286100 0.0 1021330
04:00+14в61475100 0.0 1020382
07:00+14вюв6147299 0.3 1020434
10:00+18юв8126657 0.4 1020744
13:00+20юв696661 0.8 10201170
16:00+20юв696795 1.0 1020878
19:00+20юв4772100 0.2 1020330
22:00+18вюв41081100 0.7 1020214
14 мая, пт
пт1401:00+17вюв51269100 0.0 1020287
04:00+15юв5127013 0.0 1020262
07:00+15юв411735 0.0 1021226
10:00+21юв695420 0.0 1020440
13:00+24юв7944100 0.0 1020882
16:00+25юв611485 0.0 10201222
19:00+23юв6125766 0.0 1019401
22:00+19юв6166348 0.0 1019315